Tracking 31027 objects as of 19-Jul-2025
HD Live streaming from Space Station
objects crossing your sky now

STARLINK-5862

Track STARLINK-5862 now!
10-day predictions
STARLINK-5862 is classified as:


NORAD ID: 55920
Int'l Code: 2023-037G
Perigee: 576.8 km
Apogee: 581.7 km
Inclination: 70.0 °
Period: 96.1 minutes
Semi major axis: 6950 km
RCS: Unknown
Launch date: March 17, 2023
Source: United States (US)
Launch site: AIR FORCE WESTERN TEST RANGE (AFWTR)
Your satellite tracking list
CREW DRAGON DEMO-2 DEB
Track 1 satellite(s)




NASA's NSSDC Master Catalog

Two Line Element Set (TLE):
1 55920U 23037G   25199.61795173 -.00001344  00000-0 -10487-3 0  9998
2 55920  70.0002 154.8299 0003508 264.2084  95.8675 14.98316341128913
Source of the keplerian elements: AFSPC